DELTA 1 DEB, 7166

Orbit data source: Space-Track

DELTA 1 DEB, 7166 is space debris in SSO originally from a launch on Tue, 06 Nov 1973 UTC launched from the Air Force Western Test Range (AFWTR). Debris objects in space refer to the collection of defunct objects orbiting the Earth. Examples of debris include non-operational satellites, rocket bodies, and fragments generated from explosions, collisions, or faulty payload assembly.

Loading next visibility...
Identifier
7166, 1973-086EE
Orbit
SSO
Country
Flag of USUS
Related business
Manufacturer
Unknown
Mission
Spacecraft
Bus & Motor
Unknown
Mass
Unknown
Launch date (UTC)
1973-11-06 (52 years ago)
Launch vehicle
Unknown
Launch site
Air Force Western Test Range (AFWTR)
Object type
Payload
Rocket body
Debris
Shape & HBR
Unknown shape, 0.1 m
Radar Cross Section
Small (<0.1 m²)

Expand to show TLE details & history
Last TLE update: 1 day ago

TLE from 1 day ago
0 DELTA 1 DEB
1  7166U 73086EE  26121.99212837  .00000053  00000-0  72948-3 0  9998
2  7166 102.2405 127.8153 0013230 359.5130  28.0768 12.41483885374883
Epoch: 2026-05-01T23:48Z
TLE epoch observation values (Epoch: 2026-05-01T23:48:39.891Z)
Latitude
27.01812°
Longitude
-95.58757°
Altitude
1,494.099 km
Speed
7.123 km/s
True Right ascension
08h 05m 58s
True Declination
26° 53' 32"
Sunlit
Object was in daylight at epoch
Visualization orbit readout
Latitude
Unknown
Longitude
Unknown
Altitude
Unknown
Speed
Unknown
Apparent Right ascension
Unknown
Apparent Declination
Unknown
Sunlit
N/A
Visualization observer readout
Local Sidereal Time
10:20:48
Azimuth
Unknown
Elevation
Unknown
Doppler factor
Unknown
Orbital elements
Apogee altitude
1,508.326 km
Perigee altitude
1,487.486 km
Semi-major axis
7,876.043 km
Eccentricity
0.00132
Inclination
102.2405°
RAAN
127.8153°
Arg. of periapsis
359.513°
True anomaly
28.14826°
Mean anomaly
28.0768°
Eccentric anomaly
28.11252°
Mean motion
3.10514 °/min
Orbital period
115.94 mins
BSTAR
0.00072948
Loading maneuver chart data...
Computing Atmospheric mass density...
Loading historical data...
Loading historical data...
Loading historical data...
Loading historical data...
Loading historical data...
Loading historical data...
Loading historical data...

Documentation

Showing up to 5 results
|